Regional Weather Roundup
Issued by NWS

Home | Current Version | Previous Version | Graphics & Text | Print | Product List | Glossary On
Versions: 1 2 3 4 5 6 7 8 9 10 11 12 13 14 15 16 17 18 19 20 21 22 23 24 25 26 27 28 29 30 31 32 33 34 35 36 37 38 39 40 41 42 43 44 45 46 47 48 49 50
000
ASUS45 KBOU 280507
RWRCO

WEATHER ROUNDUP FOR COLORADO
NATIONAL WEATHER SERVICE DENVER/BOULDER CO
1100 PM MDT WED MAY 27 2015

NOTE: "FAIR" INDICATES FEW OR NO CLOUDS BELOW 12000 FEET WITH NO
SIGNIFICANT WEATHER AND/OR OBSTRUCTIONS TO VISIBILITY.

COZ001>005-013-030-031-280600-
...NORTHWEST COLORADO...

CITY           SKY/WX    TMP DP  RH WIND       PRES   REMARKS
CRAIG          CLOUDY    53  43  68 CALM      30.19R
HAYDEN         CLOUDY    50  39  66 NE5       30.19F
MEEKER         CLOUDY    49  45  86 VRB3      30.22F
MOUNT WERNER   NOT AVBL
STEAMBOAT SPGS CLOUDY    49  43  80 E12       30.21F
WALDEN         MOCLDY    45  36  70 S9        30.23S
$$

COZ006>008-011-280600-
...WEST CENTRAL VALLEYS...

CITY           SKY/WX    TMP DP  RH WIND       PRES   REMARKS
GRAND JUNCTION LGT RAIN  57  49  74 E5        30.14R
MONTROSE       MOCLDY    55  43  63 NW12      30.17R
EAGLE          CLOUDY    54  43  66 S5        30.21R
RIFLE          CLOUDY    52  46  80 S13       30.18R
DELTA          MOCLDY    61  45  54 NW15G36   30.12R
NUCLA          MOCLDY    55  41  58 N3        30.15S
$$

COZ017>023-064>068-280600-
...SOUTHWEST COLORADO...

CITY           SKY/WX    TMP DP  RH WIND       PRES   REMARKS
DURANGO        PTCLDY    53  40  61 CALM      30.15R
CORTEZ         CLEAR     52  42  69 NE8       30.11R
PAGOSA SPRINGS PTCLDY    50  36  58 CALM      30.22R
TELLURIDE      PTCLDY    46  36  68 SE6       30.32S
WOLF CREEK PAS NOT AVBL
$$

COZ009-010-012-014-032>034-037-058>063-280600-
...CENTRAL COLORADO...

CITY           SKY/WX    TMP DP  RH WIND       PRES   REMARKS
ASPEN          MOCLDY    47  36  65 SW7       30.23R
BUENA VISTA    MOCLDY    47  36  65 S5        30.24S
COPPER MTN     MOCLDY    37  28  70 S12G24    30.42F
BERTHOUD PASS  CLOUDY    32  23  69 W22       30.43F WCI  19
COTTONWOOD PAS MOCLDY    46  32  57 W9        30.32R
GUNNISON       PTCLDY    43  36  75 CALM      30.30R
KREMMLING      CLOUDY    50  41  71 NW7       30.24S
LEADVILLE      MOCLDY    36  33  89 NE6       30.31F
MONARCH PASS   PTCLDY    34  28  80 W25       30.52F WCI  21
SALIDA         MOCLDY    49  38  65 SW7       30.29F
SUNLIGHT       HVY SNOW  37  36  93 NW8       30.40F VSB<1/4
WILKERSON PASS PTCLDY    37  27  65 W7        30.40S
$$

COZ069>075-280600-
...SAN LUIS VALLEY/SANGRE DE CRISTO MOUNTAINS...

CITY           SKY/WX    TMP DP  RH WIND       PRES   REMARKS
ALAMOSA        PTCLDY    48  36  63 W3        30.21R
LA VETA PASS   PTCLDY   N/A N/A N/A MISG      30.35R
SAGUACHE       MOCLDY    46  36  66 N12       30.24S
$$

COZ035-036-038>040-280600-
...NORTHERN COLORADO FRONT RANGE...

CITY           SKY/WX    TMP DP  RH WIND       PRES   REMARKS
DENVER INTL AP MOCLDY    63  47  55 SW14      30.07R THUNDER
DMNS CITY PARK   N/A     61  43  53 W2G9      30.06F
AURORA         TSTM      60  47  62 W12G18    30.09R
FRONT RANGE AP NOT AVBL
ERIE MUNI ARPT MOCLDY    62  45  53 SW5       30.05S
BOULDER MUN AP MOCLDY    63  41  45 CALM      30.07R
CENTENNIAL     MOCLDY    60  42  51 W7        30.09R THUNDER
BROOMFIELD     NOT AVBL
FORT COLLINS   PTCLDY    57  52  82 N7        30.06S
LONGMONT       MOCLDY    61  48  61 N5        30.07R
$$

COZ041-046-047-076>085-087-088-280600-
...PIKES PEAK/PALMER DIVIDE AND SOUTHERN FOOTHILLS...

CITY           SKY/WX    TMP DP  RH WIND       PRES   REMARKS
COLO. SPRINGS  MOCLDY    56  43  61 NE13      30.12R
A. F. ACADEMY  CLOUDY    60  35  39 W5        30.14R
ELLICOTT         N/A    N/A N/A N/A SW7       30.11R
FALCON         MOCLDY    53  42  66 CALM      30.17R
FORT CARSON    MOCLDY    56  42  59 NW9       30.09R
LIMON          PTCLDY    52  48  86 E8        30.09R
MONUMENT HILL  PTCLDY    52  37  58 MISG      30.16R
TRINIDAD       PTCLDY    52  46  80 SW7       30.11R
$$

COZ042>045-048>051-090-091-280600-
...NORTHEAST COLORADO...

CITY           SKY/WX    TMP DP  RH WIND       PRES   REMARKS
GREELEY ARPT   PTCLDY    61  55  82 E12       30.05R
AKRON          MOCLDY    57  54  89 SE21G26   30.06S
BURLINGTON     CLOUDY    58  53  84 SE18G24   30.10R
WRAY           MOCLDY    58  53  85 SE12      30.07R
STERLING       MOCLDY    59  55  88 SE14G24   30.02S
HOLYOKE        MOCLDY    59  54  82 SE12      30.07S
FORT MORGAN    MOCLDY    60  55  83 SE7       30.04R
$$

COZ086-089-092>099-280600-
...SOUTHEAST COLORADO...

CITY           SKY/WX    TMP DP  RH WIND       PRES   REMARKS
PUEBLO         MOCLDY    60  51  72 CALM      30.04R
LA JUNTA       CLOUDY    67  51  56 SE14G22   30.01S
LAMAR          MOCLDY    61  55  81 SE15G24   30.01F
SPRINGFIELD      N/A     57  55  93 E8        30.08R
$$



USA.gov is the U.S. government's official web portal to all federal, state and local government web resources and services.